Location: Barcelona
(41.3830°N, 2.1830°E)
Time: 11:59:53
(UTC+02:00)

ISS - Pass Details

Date: 01 June 2020
Orbit: 417 x 419 km, 51.6° (Epoch: 31 May)

Event Time Altitude Azimuth Distance (km) Brightness Sun altitude
Rises 23:59:16 0° 292° (WNW) 2,364 0.8 -21.6°
Reaches altitude 10° 00:01:47 10° 274° (W) 1,497 -0.6 -21.8°
Enters shadow 00:03:04 16° 254° (WSW) 1,187 -1.4 -21.9°
